User: anonymous   Login
Location: Unspecified
(0.0000°N, 0.0000°E)
Time: 23:11:42
(UTC+00:00)
Language:

PROBA 2 - Orbit

View from above orbital plane
View from above orbital plane
View from above satellite
View from above satellite

Ground track
Ground track

The orbit data is extracted from the following two-line orbital elements,

1 36037U 09059B   14329.55206782  .00000179  00000-0  54660-4 0  5769
2 36037 098.2783 160.2852 0012590 337.3399 087.0574 14.52702273268422
Epoch (UTC): 25 November 2014 13:14:58
Eccentricity: 0.0012590
inclination: 98.2783°
perigee height: 708 km
apogee height: 726 km
right ascension of ascending node: 160.2852°
argument of perigee: 337.3399°
revolutions per day: 14.52702273
mean anomaly at epoch: 87.0574°
orbit number at epoch: 26842

The dashed part of the orbit path shows where the satellite is in the earth's shadow,  

DLR